カタログに戻る

FENGYUN 1C DEB

運用中LEO
NORAD 31997·DEBRIS·🇨🇳 China

打ち上げ May 10, 1999 から Taiyuan Satellite Launch Center

Loading…

次のパス (今後24時間)

TLE

最新Source: Space-Track

元期: Sep 14, 2026, 13:37 UTC

1 31997U 99025CQA 26257.56776226  .00000880  00000-0  94516-3 0  9991
2 31997 102.5085  22.6717 0283642  10.5346 350.1563 13.61627088654360

AllMySatでFENGYUN 1C DEBをリアルタイム追跡

Download on the App Store